RON41 NGTA-PKMJ

Flight info

Callsign RON41
Flight time 1h 21m
Altitude 32000
Route BO R332 MAJ
Aircraft B738/M-SDE2E3FGHIRWXY/LB1

Departure

Time 2026-05-07 07:36
Airport Bonriki International Airport (NGTA)

Arrival

Time 2026-05-07 08:57
Airport Marshall Islands International Airport (PKMJ)
Time Latitude Longitude Altitude Speed Heading
2026-05-07 07:23 1.38062 173.14595 30 ft 0 kts 323°
2026-05-07 07:33 1.38085 173.14578 30 ft 10 kts 324°
2026-05-07 07:33 1.38178 173.14513 30 ft 23 kts 284°
2026-05-07 07:34 1.38211 173.14313 32 ft 30 kts 279°
2026-05-07 07:34 1.38238 173.14107 32 ft 29 kts 271°
2026-05-07 07:34 1.38254 173.13902 28 ft 29 kts 261°
2026-05-07 07:34 1.38265 173.13834 26 ft 0 kts 80°
2026-05-07 07:35 1.38266 173.13835 26 ft 1 kts 85°
2026-05-07 07:35 1.38240 173.14081 32 ft 74 kts 96°
2026-05-07 07:35 1.38145 173.14847 32 ft 145 kts 97°
2026-05-07 07:35 1.37986 173.16028 238 ft 184 kts 99°
2026-05-07 07:36 1.37890 173.17300 965 ft 193 kts 74°
2026-05-07 07:36 1.38731 173.18352 1776 ft 200 kts 34°
2026-05-07 07:36 1.40075 173.18806 2296 ft 220 kts
2026-05-07 07:36 1.41646 173.18512 2851 ft 238 kts 339°
2026-05-07 07:37 1.43138 173.17629 3449 ft 252 kts 329°
2026-05-07 07:37 1.44665 173.16660 4112 ft 261 kts 336°
2026-05-07 07:37 1.46422 173.16019 4693 ft 271 kts 349°
2026-05-07 07:37 1.48302 173.15575 5383 ft 279 kts 350°
2026-05-07 07:38 1.50203 173.15086 6141 ft 284 kts 347°
2026-05-07 07:38 1.52103 173.14526 6888 ft 289 kts 345°
2026-05-07 07:38 1.54036 173.13910 7688 ft 291 kts 344°
2026-05-07 07:38 1.55951 173.13281 8427 ft 294 kts 343°
2026-05-07 07:39 1.57913 173.12634 9200 ft 296 kts 343°
2026-05-07 07:39 1.59876 173.11989 9925 ft 300 kts 343°
2026-05-07 07:39 1.61875 173.11336 10448 ft 311 kts 342°
2026-05-07 07:39 1.63993 173.10646 10858 ft 325 kts 342°
2026-05-07 07:40 1.66208 173.09926 11212 ft 341 kts 342°
2026-05-07 07:40 1.68519 173.09177 11566 ft 356 kts 342°
2026-05-07 07:40 1.70938 173.08391 12047 ft 366 kts 342°
2026-05-07 07:40 1.73357 173.07603 12681 ft 369 kts 342°
2026-05-07 07:41 1.75811 173.06805 13302 ft 373 kts 342°
2026-05-07 07:41 1.78277 173.06003 13975 ft 375 kts 342°
2026-05-07 07:41 1.80777 173.05188 14604 ft 378 kts 342°
2026-05-07 07:41 1.83282 173.04372 15201 ft 381 kts 342°
2026-05-07 07:42 1.85823 173.03545 15810 ft 383 kts 342°
2026-05-07 07:42 1.88372 173.02714 16375 ft 386 kts 343°
2026-05-07 07:42 1.90929 173.01883 16949 ft 388 kts 343°
2026-05-07 07:42 1.93528 173.01038 17485 ft 391 kts 343°
2026-05-07 07:43 1.96124 173.00192 17986 ft 395 kts 343°
2026-05-07 07:43 1.98739 172.99342 18520 ft 397 kts 342°
2026-05-07 07:43 2.01392 172.98479 18986 ft 400 kts 343°
2026-05-07 07:43 2.04061 172.97610 19435 ft 404 kts 342°
2026-05-07 07:44 2.06748 172.96738 19930 ft 406 kts 342°
2026-05-07 07:44 2.09438 172.95863 20354 ft 410 kts 342°
2026-05-07 07:44 2.11267 172.95268 20654 ft 412 kts 342°
2026-05-07 07:44 2.14919 172.94083 21200 ft 416 kts 342°
2026-05-07 07:45 2.17686 172.93182 21584 ft 420 kts 342°
2026-05-07 07:45 2.20496 172.92267 21992 ft 423 kts 342°
2026-05-07 07:45 2.23315 172.91348 22383 ft 426 kts 342°
2026-05-07 07:45 2.26113 172.90439 22764 ft 429 kts 342°
2026-05-07 07:46 2.28984 172.89505 23144 ft 432 kts 342°
2026-05-07 07:46 2.31853 172.88571 23531 ft 435 kts 342°
2026-05-07 07:46 2.34770 172.87622 23889 ft 439 kts 342°
2026-05-07 07:46 2.37678 172.86675 24288 ft 441 kts 342°
2026-05-07 07:47 2.40595 172.85722 24662 ft 444 kts 342°
2026-05-07 07:47 2.43564 172.84755 25034 ft 446 kts 342°
2026-05-07 07:47 2.46510 172.83794 25360 ft 450 kts 342°
2026-05-07 07:47 2.49534 172.82809 25714 ft 453 kts 342°
2026-05-07 07:48 2.52509 172.81841 26073 ft 455 kts 342°
2026-05-07 07:48 2.55570 172.80844 26408 ft 459 kts 342°
2026-05-07 07:48 2.58618 172.79849 26721 ft 462 kts 342°
2026-05-07 07:48 2.61665 172.78856 27080 ft 464 kts 342°
2026-05-07 07:49 2.64746 172.77852 27408 ft 467 kts 342°
2026-05-07 07:49 2.67848 172.76842 27720 ft 469 kts 342°
2026-05-07 07:49 2.70968 172.75824 28291 ft 466 kts 342°
2026-05-07 07:49 2.74042 172.74821 28787 ft 464 kts 342°
2026-05-07 07:50 2.77095 172.73827 29310 ft 461 kts 342°
2026-05-07 07:50 2.80163 172.72826 29798 ft 460 kts 342°
2026-05-07 07:50 2.83200 172.71834 30273 ft 458 kts 343°
2026-05-07 07:50 2.86236 172.70845 30757 ft 456 kts 343°
2026-05-07 07:51 2.89239 172.69864 31224 ft 454 kts 343°
2026-05-07 07:51 2.92249 172.68884 31621 ft 453 kts 343°
2026-05-07 07:51 2.95225 172.67915 31844 ft 455 kts 343°
2026-05-07 07:52 3.01280 172.65944 31843 ft 452 kts 343°
2026-05-07 07:52 3.07294 172.63983 31844 ft 452 kts 343°
2026-05-07 07:53 3.13266 172.62036 31843 ft 451 kts 342°
2026-05-07 07:53 3.19290 172.60069 31843 ft 452 kts 343°
2026-05-07 07:54 3.25305 172.58105 31843 ft 452 kts 342°
2026-05-07 07:54 3.31306 172.56146 31843 ft 454 kts 343°
2026-05-07 07:55 3.37328 172.54182 31843 ft 453 kts 343°
2026-05-07 07:55 3.43350 172.52217 31843 ft 452 kts 343°
2026-05-07 07:56 3.49381 172.50250 31843 ft 453 kts 343°
2026-05-07 07:56 3.55357 172.48256 31843 ft 453 kts 342°
2026-05-07 07:57 3.61321 172.46196 31843 ft 452 kts 342°
2026-05-07 07:57 3.67274 172.44132 31843 ft 453 kts 342°
2026-05-07 07:58 3.73232 172.42072 31843 ft 452 kts 342°
2026-05-07 07:58 3.79220 172.40007 31843 ft 454 kts 342°
2026-05-07 07:59 3.85187 172.37955 31843 ft 453 kts 342°
2026-05-07 07:59 3.91197 172.35889 31843 ft 453 kts 342°
2026-05-07 08:00 3.97139 172.33847 31844 ft 452 kts 342°
2026-05-07 08:00 4.03107 172.31796 31847 ft 453 kts 342°
2026-05-07 08:01 4.09099 172.29735 31857 ft 453 kts 342°
2026-05-07 08:01 4.15069 172.27681 31864 ft 454 kts 342°
2026-05-07 08:02 4.21042 172.25624 31863 ft 453 kts 342°
2026-05-07 08:02 4.27017 172.23569 31860 ft 453 kts 342°
2026-05-07 08:03 4.33021 172.21501 31855 ft 453 kts 342°
2026-05-07 08:03 4.38993 172.19447 31854 ft 453 kts 342°
2026-05-07 08:04 4.44970 172.17394 31855 ft 453 kts 342°
2026-05-07 08:04 4.50964 172.15329 31854 ft 454 kts 342°
2026-05-07 08:05 4.56959 172.13263 31855 ft 454 kts 342°
2026-05-07 08:05 4.62936 172.11203 31859 ft 453 kts 342°
2026-05-07 08:06 4.68895 172.09152 31856 ft 453 kts 342°
2026-05-07 08:06 4.74908 172.07080 31859 ft 453 kts 342°
2026-05-07 08:07 4.80884 172.05020 31859 ft 453 kts 342°
2026-05-07 08:07 4.86862 172.02960 31856 ft 452 kts 342°
2026-05-07 08:08 4.92818 172.00908 31848 ft 453 kts 342°
2026-05-07 08:08 4.98802 171.98843 31843 ft 453 kts 341°
2026-05-07 08:09 5.04786 171.96779 31843 ft 455 kts 342°
2026-05-07 08:09 5.10761 171.94717 31845 ft 454 kts 342°
2026-05-07 08:10 5.16768 171.92645 31843 ft 453 kts 342°
2026-05-07 08:10 5.22759 171.90579 31847 ft 454 kts 341°
2026-05-07 08:11 5.28733 171.88518 31845 ft 453 kts 341°
2026-05-07 08:11 5.34706 171.86455 31845 ft 454 kts 341°
2026-05-07 08:12 5.40704 171.84384 31849 ft 453 kts 341°
2026-05-07 08:12 5.46666 171.82324 31854 ft 454 kts 341°
2026-05-07 08:13 5.52663 171.80252 31859 ft 454 kts 341°
2026-05-07 08:13 5.58671 171.78175 31862 ft 454 kts 341°
2026-05-07 08:14 5.64622 171.76119 31865 ft 454 kts 341°
2026-05-07 08:14 5.70614 171.74048 31863 ft 454 kts 341°
2026-05-07 08:15 5.76610 171.71974 31864 ft 453 kts 341°
2026-05-07 08:15 5.82570 171.69913 31862 ft 453 kts 341°
2026-05-07 08:16 5.88561 171.67839 31864 ft 453 kts 341°
2026-05-07 08:16 5.94520 171.65776 31864 ft 453 kts 341°
2026-05-07 08:17 6.00493 171.63709 31863 ft 455 kts 341°
2026-05-07 08:17 6.06458 171.61644 31862 ft 454 kts 341°
2026-05-07 08:18 6.12450 171.59570 31866 ft 455 kts 341°
2026-05-07 08:18 6.18468 171.57487 31864 ft 455 kts 341°
2026-05-07 08:19 6.24447 171.55417 31865 ft 455 kts 341°
2026-05-07 08:19 6.30461 171.53334 31863 ft 454 kts 341°
2026-05-07 08:20 6.36458 171.51254 31864 ft 453 kts 340°
2026-05-07 08:20 6.42424 171.49187 31864 ft 453 kts 340°
2026-05-07 08:21 6.48395 171.47116 31863 ft 454 kts 340°
2026-05-07 08:21 6.54357 171.45052 31867 ft 453 kts 340°
2026-05-07 08:22 6.60332 171.42981 31871 ft 453 kts 340°
2026-05-07 08:22 6.66303 171.40907 31872 ft 453 kts 340°
2026-05-07 08:23 6.72253 171.38841 31877 ft 451 kts 340°
2026-05-07 08:23 6.78205 171.36777 31881 ft 451 kts 340°
2026-05-07 08:24 6.84114 171.34727 31881 ft 449 kts 340°
2026-05-07 08:24 6.90075 171.32658 31883 ft 449 kts 340°
2026-05-07 08:25 6.95984 171.30606 31883 ft 449 kts 340°
2026-05-07 08:25 7.01870 171.28558 31886 ft 447 kts 339°
2026-05-07 08:26 7.10781 171.25554 31889 ft 449 kts 342°
2026-05-07 08:26 7.16864 171.24110 31821 ft 451 kts 349°
2026-05-07 08:27 7.23153 171.23483 31576 ft 452 kts 358°
2026-05-07 08:27 7.26298 171.23520 31400 ft 454 kts
2026-05-07 08:27 7.29439 171.23793 31234 ft 455 kts
2026-05-07 08:28 7.32605 171.24312 31121 ft 455 kts 11°
2026-05-07 08:28 7.35674 171.25061 31094 ft 454 kts 15°
2026-05-07 08:28 7.41609 171.27235 31319 ft 457 kts 24°
2026-05-07 08:29 7.47229 171.30301 31218 ft 457 kts 33°
2026-05-07 08:29 7.52291 171.34119 31292 ft 454 kts 41°
2026-05-07 08:30 7.54610 171.36316 31428 ft 457 kts 46°
2026-05-07 08:30 7.56746 171.38663 31471 ft 459 kts 50°
2026-05-07 08:30 7.60508 171.43832 31319 ft 455 kts 58°
2026-05-07 08:31 7.63443 171.49461 31437 ft 453 kts 68°
2026-05-07 08:31 7.65445 171.55469 31511 ft 456 kts 77°
2026-05-07 08:32 7.66482 171.61755 31318 ft 451 kts 86°
2026-05-07 08:32 7.66536 171.68043 31511 ft 451 kts 95°
2026-05-07 08:33 7.65545 171.74271 31658 ft 453 kts 105°
2026-05-07 08:33 7.63549 171.80240 31502 ft 451 kts 114°
2026-05-07 08:34 7.60641 171.85805 31472 ft 446 kts 123°
2026-05-07 08:34 7.58883 171.88361 31603 ft 448 kts 128°
2026-05-07 08:34 7.56888 171.90794 31667 ft 451 kts 133°
2026-05-07 08:35 7.52355 171.95103 31575 ft 448 kts 142°
2026-05-07 08:35 7.49842 171.96976 31468 ft 445 kts 147°
2026-05-07 08:35 7.47220 171.98622 31487 ft 444 kts 152°
2026-05-07 08:36 7.44451 172.00064 31628 ft 445 kts 156°
2026-05-07 08:36 7.41605 172.01265 31706 ft 446 kts 161°
2026-05-07 08:36 7.35635 172.02995 31566 ft 445 kts 169°
2026-05-07 08:37 7.29495 172.03758 31585 ft 442 kts 179°
2026-05-07 08:37 7.26400 172.03761 31712 ft 444 kts 184°
2026-05-07 08:37 7.23320 172.03496 31753 ft 446 kts 188°
2026-05-07 08:38 7.17256 172.02176 31581 ft 442 kts 198°
2026-05-07 08:38 7.11592 171.99922 31598 ft 439 kts 207°
2026-05-07 08:39 7.08889 171.98431 31735 ft 440 kts 212°
2026-05-07 08:39 7.06341 171.96709 31785 ft 441 kts 218°
2026-05-07 08:39 7.01745 171.92603 31620 ft 439 kts 227°
2026-05-07 08:40 6.99756 171.90305 31357 ft 433 kts 232°
2026-05-07 08:40 6.97963 171.87859 30593 ft 435 kts 237°
2026-05-07 08:40 6.96418 171.85217 29614 ft 442 kts 245°
2026-05-07 08:40 6.95541 171.82266 28608 ft 449 kts 262°
2026-05-07 08:41 6.95520 171.79112 27636 ft 456 kts 277°
2026-05-07 08:41 6.96164 171.75943 26769 ft 459 kts 284°
2026-05-07 08:41 6.97066 171.72859 25928 ft 461 kts 287°
2026-05-07 08:41 6.98074 171.69775 25113 ft 462 kts 288°
2026-05-07 08:42 6.99106 171.66736 24467 ft 459 kts 288°
2026-05-07 08:42 7.00141 171.63721 23915 ft 453 kts 289°
2026-05-07 08:42 7.01182 171.60687 23368 ft 447 kts 289°
2026-05-07 08:42 7.02187 171.57748 22775 ft 444 kts 289°
2026-05-07 08:43 7.03174 171.54848 22256 ft 438 kts 289°
2026-05-07 08:43 7.04164 171.51926 21656 ft 435 kts 289°
2026-05-07 08:43 7.05131 171.49060 21093 ft 431 kts 289°
2026-05-07 08:43 7.06097 171.46204 20542 ft 427 kts 289°
2026-05-07 08:44 7.07046 171.43401 19955 ft 424 kts 289°
2026-05-07 08:44 7.08006 171.40562 19410 ft 420 kts 289°
2026-05-07 08:44 7.08937 171.37797 18629 ft 414 kts 289°
2026-05-07 08:44 7.09846 171.35086 17700 ft 408 kts 289°
2026-05-07 08:45 7.10733 171.32425 16704 ft 404 kts 289°
2026-05-07 08:45 7.11624 171.29730 15697 ft 399 kts 289°
2026-05-07 08:45 7.12490 171.27092 14703 ft 394 kts 289°
2026-05-07 08:45 7.13328 171.24512 13733 ft 389 kts 289°
2026-05-07 08:46 7.14162 171.21933 12746 ft 385 kts 288°
2026-05-07 08:46 7.14978 171.19405 11739 ft 381 kts 288°
2026-05-07 08:46 7.15785 171.16928 10780 ft 377 kts 288°
2026-05-07 08:46 7.16621 171.14407 9894 ft 369 kts 288°
2026-05-07 08:47 7.17423 171.12015 9060 ft 362 kts 288°
2026-05-07 08:47 7.18220 171.09639 8693 ft 341 kts 289°
2026-05-07 08:47 7.18936 171.07475 8523 ft 318 kts 287°
2026-05-07 08:47 7.19258 171.05345 8346 ft 302 kts 265°
2026-05-07 08:48 7.18780 171.03317 7907 ft 294 kts 245°
2026-05-07 08:48 7.17870 171.01479 7190 ft 297 kts 240°
2026-05-07 08:48 7.16839 170.99651 6510 ft 298 kts 239°
2026-05-07 08:48 7.15788 170.97871 5922 ft 296 kts 233°
2026-05-07 08:49 7.14351 170.96436 5328 ft 290 kts 208°
2026-05-07 08:49 7.12489 170.95749 4703 ft 283 kts 182°
2026-05-07 08:49 7.10519 170.95804 4107 ft 274 kts 161°
2026-05-07 08:49 7.08923 170.96622 3828 ft 249 kts 131°
2026-05-07 08:50 7.07904 170.97969 3625 ft 233 kts 113°
2026-05-07 08:50 7.07216 170.99440 3359 ft 229 kts 110°
2026-05-07 08:50 7.06544 171.00899 3111 ft 226 kts 111°
2026-05-07 08:50 7.05869 171.02309 2868 ft 223 kts 112°
2026-05-07 08:51 7.05196 171.03700 2629 ft 220 kts 111°
2026-05-07 08:51 7.04530 171.05090 2387 ft 218 kts 111°
2026-05-07 08:51 7.03876 171.06457 2170 ft 213 kts 111°
2026-05-07 08:51 7.03242 171.07781 2004 ft 206 kts 111°
2026-05-07 08:52 7.02639 171.09056 2007 ft 189 kts 108°
2026-05-07 08:52 7.02350 171.10263 1982 ft 167 kts 84°
2026-05-07 08:52 7.02593 171.11342 1968 ft 148 kts 71°
2026-05-07 08:52 7.02876 171.12331 2000 ft 148 kts 74°
2026-05-07 08:53 7.03113 171.13333 1993 ft 146 kts 75°
2026-05-07 08:53 7.03355 171.14343 1993 ft 147 kts 74°
2026-05-07 08:53 7.03594 171.15320 1966 ft 136 kts 74°
2026-05-07 08:53 7.03815 171.16214 1954 ft 130 kts 74°
2026-05-07 08:54 7.04029 171.17090 1841 ft 128 kts 74°
2026-05-07 08:54 7.04248 171.17976 1729 ft 129 kts 74°
2026-05-07 08:54 7.04463 171.18854 1573 ft 131 kts 74°
2026-05-07 08:54 7.04682 171.19737 1388 ft 129 kts 74°
2026-05-07 08:55 7.04903 171.20631 1213 ft 131 kts 75°
2026-05-07 08:55 7.05119 171.21516 1038 ft 130 kts 75°
2026-05-07 08:55 7.05338 171.22407 848 ft 131 kts 75°
2026-05-07 08:55 7.05517 171.23323 653 ft 134 kts 77°
2026-05-07 08:56 7.05737 171.24237 422 ft 134 kts 74°
2026-05-07 08:56 7.05988 171.25134 232 ft 132 kts 73°
2026-05-07 08:56 7.06210 171.26036 77 ft 131 kts 76°
2026-05-07 08:56 7.06420 171.26869 14 ft 99 kts 81°
2026-05-07 08:57 7.06533 171.27321 15 ft 45 kts 76°
2026-05-07 08:57 7.06583 171.27531 17 ft 26 kts 76°
2026-05-07 08:57 7.06623 171.27710 17 ft 25 kts 77°
2026-05-07 08:57 7.06666 171.27893 17 ft 27 kts 72°
2026-05-07 08:58 7.06716 171.28052 14 ft 17 kts 54°
2026-05-07 08:58 7.06810 171.28078 14 ft 10 kts 17°
2026-05-07 08:58 7.06842 171.28128 14 ft 8 kts 73°
2026-05-07 08:58 7.06850 171.28175 14 ft 2 kts 109°
2026-05-07 08:59 7.06850 171.28177 14 ft 0 kts 110°